[[{"header":{"parameterUnit":"m.s-1","parameterCategory":1,"la1":30.2991,"la2":30.254,"lo1":-89.0895,"lo2":-89.0444,"dy":0.0017,"dx":0.0017,"nx":28,"ny":28,"refTime":"2024-06-26T09:00:00:Z","depth":0,"parameterNumber":2,"parameterNumberName":"U-component_of_WINDS"},"data":[0,0,0,0,0,0,0,0,0,0,0,0,0,0,0,0,0,0,0,0,0,0,0,0,0,0,0,0,0,0,0,0,0,0,0,0,0,0,0,0,0,0,0,0,0,0,0,0,0,0,0,0,0,0,0,0,0,0,2.8436,2.8437,0,2.856,2.8562,2.8563,2.8514,2.8511,2.8508,2.8506,2.8637,2.8643,2.8649,0,0,0,0,0,0,0,0,0,0,0,0,0,2.8159,2.8164,2.8435,2.8437,2.8439,2.856,2.8562,2.8564,2.8515,2.8511,2.8508,2.8504,2.8635,2.8642,2.865,0,0,0,0,0,0,0,0,0,0,0,0,0,2.8281,2.8166,2.8435,2.8429,2.8429,2.856,2.8562,2.8564,2.8515,2.8511,2.8507,2.8503,2.8632,2.8641,2.8651,2.8796,0,0,2.8679,2.8683,0,0,0,0,0,0,0,0,2.8274,2.8291,2.8428,2.8429,2.843,2.8517,2.8512,2.8642,2.8517,2.8483,2.8505,2.85,2.8601,2.8612,2.8646,2.8802,2.8808,2.868,2.8686,2.869,2.8692,0,0,0,0,0,0,0,2.8266,2.8286,2.8485,2.843,2.8432,2.8421,2.8434,2.8537,2.8565,2.8485,2.8482,2.8497,2.8601,2.8637,2.8648,2.881,2.868,2.8688,2.8694,2.8697,2.9094,2.9099,0,0,0,0,0,0,2.8257,2.8279,2.8481,2.8489,2.834,2.843,2.8444,2.8494,2.8564,2.857,2.8501,2.8495,2.8623,2.8637,2.8653,2.8829,2.869,2.8698,2.8704,2.9089,2.9095,2.9101,0,0,0,0,0,0,2.8251,2.8275,2.8476,2.8383,2.8408,2.8439,2.8496,2.8499,2.8534,2.8575,2.8581,2.8533,2.862,2.864,2.8761,2.8833,2.8703,2.8711,2.9083,2.9091,2.9098,2.9182,0,0,0,0,0,0,2.8243,2.8273,2.8328,2.8385,2.8413,2.8581,2.85,2.8504,2.855,2.8543,2.8606,2.8613,2.8618,2.8747,2.877,2.8843,2.8718,2.9077,2.9087,2.9096,2.9173,2.9191,2.9207,0,0,0,0,0,2.8233,2.8346,2.833,2.8355,2.8481,2.8585,2.8601,2.8604,2.8556,2.8612,2.8639,2.8611,2.8821,2.876,2.8786,2.8862,2.9073,2.9084,2.9095,2.9165,2.9187,2.9206,0,0,0,0,0,0,2.8298,2.8354,2.8337,2.8471,2.8524,2.8576,2.8647,2.8628,2.8696,2.8686,2.8688,2.8703,2.8829,2.8858,2.8789,2.9008,2.894,2.8957,2.8984,2.9006,2.9023,2.9014,2.8726,0,0,0,0,0,2.8327,2.8406,2.8451,2.8565,2.8592,2.8615,2.8661,2.8659,2.8713,2.8736,2.8771,2.8827,2.8905,2.8957,2.9032,2.9176,2.9191,2.9242,2.9259,2.9273,2.9288,2.9369,2.9393,2.9137,2.9137,2.9137,0,0,2.839,2.843,2.848,2.8579,2.862,2.8703,2.8634,2.8724,2.8786,2.875,2.8866,2.8895,2.8957,2.9091,2.9152,2.9119,2.9362,2.9287,2.9298,2.9305,2.9383,2.9407,2.9428,2.9145,2.9143,2.9142,0,0,2.8546,2.8584,2.8684,2.8726,2.8788,2.8803,2.8827,2.8883,2.89,2.9017,2.8992,2.9067,2.9202,2.9248,2.9289,2.9465,2.9443,2.9489,2.9579,2.9658,2.9678,2.9696,2.976,2.9783,2.9504,2.9504,2.9504,0,2.8616,2.8738,2.8738,2.8831,2.8876,2.8847,2.8949,2.8991,2.9074,2.9107,2.9069,2.9239,2.9279,2.9424,2.9468,2.9501,2.9531,2.9482,2.9675,2.9693,2.9709,2.9771,2.9795,2.9509,2.9509,2.9508,2.9508,0,2.8823,2.8908,2.8982,2.9063,2.9117,2.9214,2.923,2.9285,2.9279,2.9299,2.942,2.9466,2.9551,2.9585,2.958,2.9731,2.9709,2.9673,2.9605,2.9739,2.9797,2.9821,2.9517,2.9515,2.9513,2.9512,0,0,2.9023,2.9103,2.913,2.9167,2.9234,2.9301,2.9398,2.948,2.9528,2.9587,2.967,2.9786,2.9753,2.98,2.98,2.9869,3.0008,2.9825,2.9826,2.9859,3.018,3.0208,3.0235,2.9993,2.9998,3.0001,3.0175,0,2.9185,2.9354,2.9357,2.9513,2.9593,2.9566,2.9651,2.9703,2.9724,2.9796,2.982,2.9903,2.9853,2.9881,2.9948,2.9977,3.0073,2.9964,3.0072,3.0076,3.0059,3.0265,3.0294,3.0456,3.0198,3.0202,3.0205,0,2.9397,2.9463,2.9626,2.9683,2.9717,2.9793,2.9869,2.9938,2.9996,3.0007,3.006,3.0051,3.0152,3.008,3.0221,3.0147,3.0192,3.0213,3.0219,3.023,3.0149,3.0283,3.0507,3.0532,3.024,3.0237,3.0235,0,2.9529,2.9658,2.9772,2.9805,2.9874,2.9928,2.996,3.0014,3.0063,3.0131,3.0163,3.0242,3.0286,3.0348,3.036,3.0306,3.0503,3.0431,3.0516,3.0516,3.0559,3.0556,3.0795,3.0586,3.0586,3.0585,3.0585,0,2.971,2.9812,2.9833,2.9904,3.0017,3.0021,3.0134,3.0161,3.021,3.0287,3.027,3.0343,3.0354,3.0431,3.0442,3.0558,3.0578,3.0591,3.0593,3.0593,3.0592,3.0623,3.0613,3.0592,3.059,3.0589,3.0588,0,2.9877,2.9894,3.0018,3.0073,3.009,3.0171,3.0219,3.0288,3.0308,3.0406,3.0429,3.0461,3.055,3.0569,3.0675,3.0682,3.0821,3.0811,3.0801,3.0801,3.0885,3.0878,3.1154,3.1191,3.0956,3.0958,3.096,0,2.9992,3.0069,3.0133,3.0183,3.0217,3.0297,3.0348,3.0356,3.0409,3.0483,3.0544,3.0631,3.0701,3.0846,3.088,3.0961,3.0954,3.1045,3.0967,3.0965,3.0958,3.0954,3.0962,3.1061,3.1063,3.1065,3.1067,0,3.0196,3.0201,3.0274,3.0351,3.0411,3.0473,3.0531,3.0573,3.0589,3.0651,3.0741,3.0796,3.0904,3.0992,3.1075,3.1109,3.1092,3.1091,3.1116,3.1118,3.1109,3.1117,3.0844,3.1085,3.1083,3.1082,3.1081,3.108,3.0341,3.041,3.0465,3.0548,3.0592,3.0647,3.0715,3.0743,3.0819,3.0907,3.0907,3.1007,3.1066,3.1174,3.1214,3.1294,3.1265,3.13,3.1309,3.1318,3.1327,3.1096,3.1309,3.1308,3.1308,3.1307,3.1307,0,3.0546,3.058,3.0656,3.0738,3.0803,3.078,3.0843,3.09,3.0988,3.1044,3.1113,3.1219,3.1305,3.1345,3.143,3.1487,3.1481,3.1509,3.1506,3.1514,3.1346,3.1317,3.1512,3.1512,3.1512,3.1512,3.1512,3.1512,3.066,3.0774,3.0787,3.0924,3.0958,3.1055,3.1094,3.1146,3.119,3.1308,3.1379,3.1404,3.1455,3.1544,3.1622,3.1632,3.1665,3.1697,3.1704,3.1547,3.1526,3.1506,3.1479,3.1704,3.1704,3.1865,3.1867,3.1868]},{"header":{"parameterUnit":"m.s-1","parameterCategory":1,"la1":30.2991,"la2":30.254,"lo1":-89.0895,"lo2":-89.0444,"dy":0.0017,"dx":0.0017,"nx":28,"ny":28,"refTime":"2024-06-26T09:00:00:Z","depth":0,"parameterNumber":3,"parameterNumberName":"V-component_of_WINDS"},"data":[0,0,0,0,0,0,0,0,0,0,0,0,0,0,0,0,0,0,0,0,0,0,0,0,0,0,0,0,0,0,0,0,0,0,0,0,0,0,0,0,0,0,0,0,0,0,0,0,0,0,0,0,0,0,0,0,0,0,-0.4191,-0.4191,0,-0.4195,-0.4195,-0.4195,-0.4255,-0.4256,-0.4258,-0.4259,-0.426,-0.4259,-0.4257,0,0,0,0,0,0,0,0,0,0,0,0,0,-0.4231,-0.423,-0.4191,-0.4191,-0.4191,-0.4195,-0.4195,-0.4195,-0.4255,-0.4257,-0.4258,-0.426,-0.426,-0.4259,-0.4257,0,0,0,0,0,0,0,0,0,0,0,0,0,-0.4222,-0.423,-0.4191,-0.4222,-0.4224,-0.4195,-0.4195,-0.4195,-0.4254,-0.4257,-0.4259,-0.4261,-0.4261,-0.4259,-0.4257,-0.4198,0,0,-0.425,-0.4249,0,0,0,0,0,0,0,0,-0.4222,-0.422,-0.4217,-0.4219,-0.4222,-0.4227,-0.4209,-0.4196,-0.4254,-0.4243,-0.4259,-0.4262,-0.4247,-0.4246,-0.4242,-0.4198,-0.4198,-0.425,-0.4249,-0.4248,-0.4247,0,0,0,0,0,0,0,-0.4223,-0.4221,-0.4193,-0.4217,-0.422,-0.4233,-0.4235,-0.4207,-0.4232,-0.4244,-0.4248,-0.4248,-0.4249,-0.4243,-0.4242,-0.4198,-0.425,-0.4248,-0.4247,-0.4246,-0.4101,-0.4099,0,0,0,0,0,0,-0.422,-0.4221,-0.4192,-0.4193,-0.4228,-0.4231,-0.4232,-0.4223,-0.4232,-0.4236,-0.4246,-0.4251,-0.4246,-0.4244,-0.4242,-0.4171,-0.4248,-0.4246,-0.4245,-0.4104,-0.41,-0.4098,0,0,0,0,0,0,-0.422,-0.4217,-0.4192,-0.4208,-0.4206,-0.4228,-0.4217,-0.4222,-0.4217,-0.4234,-0.4238,-0.4236,-0.4248,-0.4245,-0.4208,-0.4171,-0.4245,-0.4243,-0.4107,-0.4103,-0.4099,-0.4028,0,0,0,0,0,0,-0.4221,-0.4217,-0.4196,-0.4207,-0.4205,-0.4159,-0.4215,-0.422,-0.4213,-0.422,-0.4226,-0.4229,-0.4249,-0.421,-0.4205,-0.417,-0.4241,-0.411,-0.4105,-0.41,-0.4034,-0.4022,-0.4013,0,0,0,0,0,-0.4223,-0.4176,-0.4194,-0.4191,-0.4179,-0.4157,-0.4155,-0.418,-0.421,-0.4188,-0.4199,-0.4229,-0.4177,-0.4206,-0.4201,-0.4164,-0.4112,-0.4106,-0.4101,-0.4038,-0.4025,-0.4013,0,0,0,0,0,0,-0.4159,-0.4178,-0.4199,-0.4154,-0.4153,-0.4167,-0.414,-0.4165,-0.4155,-0.4161,-0.4192,-0.4193,-0.4149,-0.4154,-0.4186,-0.4105,-0.415,-0.4142,-0.4104,-0.4091,-0.408,-0.4079,-0.424,0,0,0,0,0,-0.414,-0.4121,-0.4139,-0.4097,-0.4096,-0.4118,-0.4109,-0.4128,-0.4128,-0.4128,-0.4136,-0.4134,-0.4116,-0.4104,-0.409,-0.4035,-0.4035,-0.4007,-0.3997,-0.3988,-0.398,-0.3948,-0.3935,-0.4079,-0.4079,-0.4079,0,0,-0.41,-0.4108,-0.4094,-0.4085,-0.4086,-0.4064,-0.4117,-0.4093,-0.4076,-0.4124,-0.4088,-0.4094,-0.4093,-0.4045,-0.4025,-0.4048,-0.3941,-0.398,-0.3973,-0.3971,-0.3941,-0.3927,-0.3915,-0.4075,-0.4075,-0.4076,0,0,-0.4015,-0.4021,-0.3986,-0.3986,-0.3988,-0.4003,-0.3994,-0.4003,-0.4009,-0.3974,-0.4008,-0.3988,-0.3959,-0.3956,-0.395,-0.3862,-0.3888,-0.3856,-0.38,-0.3768,-0.3757,-0.3747,-0.3712,-0.3699,-0.385,-0.3849,-0.3849,0,-0.3965,-0.3935,-0.3964,-0.3937,-0.393,-0.3973,-0.3936,-0.3935,-0.3931,-0.3925,-0.395,-0.3912,-0.3915,-0.3866,-0.3844,-0.3839,-0.3828,-0.3855,-0.3756,-0.3747,-0.3738,-0.3705,-0.3692,-0.3845,-0.3846,-0.3846,-0.3847,0,-0.3871,-0.385,-0.3821,-0.3816,-0.3807,-0.3775,-0.3797,-0.3783,-0.3803,-0.3814,-0.3775,-0.378,-0.3766,-0.3756,-0.3775,-0.3708,-0.3722,-0.3751,-0.3796,-0.3719,-0.3688,-0.3676,-0.3839,-0.3841,-0.3842,-0.3843,0,0,-0.3747,-0.3758,-0.3746,-0.3743,-0.3748,-0.3731,-0.3699,-0.3685,-0.3671,-0.3667,-0.3639,-0.3613,-0.3639,-0.3633,-0.3652,-0.3624,-0.3549,-0.3657,-0.3658,-0.3634,-0.3472,-0.3447,-0.3432,-0.3568,-0.3566,-0.3564,-0.347,0,-0.3663,-0.3611,-0.3635,-0.3579,-0.3557,-0.3597,-0.3569,-0.3567,-0.3576,-0.3558,-0.3568,-0.3547,-0.3585,-0.3581,-0.3556,-0.3564,-0.3517,-0.3572,-0.3539,-0.3538,-0.3535,-0.3417,-0.3391,-0.3303,-0.3459,-0.3457,-0.3456,0,-0.3558,-0.3549,-0.3491,-0.3496,-0.3488,-0.3463,-0.345,-0.3433,-0.3431,-0.3439,-0.343,-0.3455,-0.3422,-0.3468,-0.342,-0.3457,-0.3445,-0.3447,-0.3444,-0.344,-0.349,-0.3406,-0.3276,-0.3261,-0.3438,-0.3439,-0.344,0,-0.3469,-0.3442,-0.3403,-0.34,-0.3406,-0.3387,-0.3388,-0.3388,-0.3377,-0.3366,-0.3359,-0.3344,-0.3335,-0.3321,-0.334,-0.3372,-0.3288,-0.3337,-0.3291,-0.3291,-0.327,-0.3271,-0.3133,-0.3267,-0.3268,-0.3268,-0.3268,0,-0.3371,-0.3333,-0.3363,-0.3338,-0.3296,-0.3324,-0.328,-0.3286,-0.3285,-0.326,-0.3294,-0.327,-0.3298,-0.3275,-0.329,-0.3246,-0.3243,-0.3246,-0.325,-0.3242,-0.324,-0.3232,-0.3238,-0.3264,-0.3265,-0.3266,-0.3267,0,-0.3263,-0.3282,-0.3242,-0.3251,-0.3252,-0.322,-0.3226,-0.3203,-0.3214,-0.3182,-0.3176,-0.3192,-0.3168,-0.3185,-0.3161,-0.3171,-0.3112,-0.3126,-0.3113,-0.3115,-0.3068,-0.307,-0.2918,-0.2897,-0.3047,-0.3046,-0.3045,0,-0.3198,-0.317,-0.3175,-0.3162,-0.3161,-0.3139,-0.3128,-0.3153,-0.314,-0.3133,-0.3109,-0.3088,-0.3072,-0.3029,-0.3038,-0.3018,-0.303,-0.2978,-0.3027,-0.3018,-0.3025,-0.3025,-0.302,-0.2967,-0.2965,-0.2964,-0.2962,0,-0.308,-0.309,-0.3074,-0.3059,-0.3044,-0.3034,-0.3026,-0.3013,-0.3038,-0.3021,-0.2996,-0.2983,-0.2958,-0.2934,-0.2917,-0.2917,-0.2942,-0.2947,-0.2935,-0.2924,-0.2916,-0.2916,-0.3082,-0.295,-0.2951,-0.2952,-0.2953,-0.2953,-0.299,-0.2965,-0.2964,-0.2943,-0.294,-0.2931,-0.2908,-0.2916,-0.2896,-0.2878,-0.2894,-0.2863,-0.2858,-0.2838,-0.2834,-0.2808,-0.283,-0.2813,-0.2808,-0.2803,-0.2794,-0.2923,-0.2806,-0.2806,-0.2807,-0.2807,-0.2807,0,-0.287,-0.2871,-0.2852,-0.2839,-0.2822,-0.2849,-0.2841,-0.2824,-0.2797,-0.2791,-0.2774,-0.2743,-0.272,-0.2726,-0.2705,-0.2683,-0.2693,-0.2676,-0.2676,-0.2675,-0.2779,-0.279,-0.2667,-0.2667,-0.2667,-0.2667,-0.2667,-0.2667,-0.2806,-0.2764,-0.2774,-0.273,-0.2731,-0.2701,-0.2694,-0.2684,-0.268,-0.2644,-0.2625,-0.263,-0.2627,-0.2605,-0.2584,-0.2586,-0.2575,-0.2552,-0.2558,-0.2654,-0.2668,-0.2681,-0.2691,-0.255,-0.255,-0.2456,-0.2455,-0.2454]}]]